N511WM KAAF-KMCO

Flight info

Callsign N511WM
Flight time 0h 58m
Altitude 23000
Route TERES HEVVN
Aircraft BE60/L-SDFGRY/C

Departure

Time 2026-04-20 01:35
Airport Apalachicola Regional Airport (KAAF)

Arrival

Time 2026-04-20 02:33
Airport Orlando International Airport (KMCO)
Time Latitude Longitude Altitude Speed Heading
2026-04-20 00:59 29.72329 -85.02714 27 ft 0 kts 262°
2026-04-20 01:28 29.72330 -85.02719 27 ft 2 kts 298°
2026-04-20 01:28 29.72343 -85.02696 27 ft 8 kts 89°
2026-04-20 01:28 29.72322 -85.02628 27 ft 12 kts 137°
2026-04-20 01:28 29.72247 -85.02547 27 ft 18 kts 134°
2026-04-20 01:29 29.72203 -85.02440 27 ft 11 kts 94°
2026-04-20 01:29 29.72204 -85.02434 27 ft 0 kts 52°
2026-04-20 01:33 29.72209 -85.02427 27 ft 4 kts 52°
2026-04-20 01:33 29.72221 -85.02390 27 ft 7 kts 103°
2026-04-20 01:33 29.72218 -85.02308 27 ft 6 kts 41°
2026-04-20 01:33 29.72269 -85.02332 27 ft 3 kts 316°
2026-04-20 01:34 29.72296 -85.02361 27 ft 29 kts 317°
2026-04-20 01:34 29.72612 -85.02724 32 ft 91 kts 321°
2026-04-20 01:34 29.73103 -85.03292 269 ft 110 kts 320°
2026-04-20 01:34 29.73659 -85.03939 572 ft 118 kts 320°
2026-04-20 01:35 29.74236 -85.04623 926 ft 119 kts 321°
2026-04-20 01:35 29.74800 -85.05337 1351 ft 123 kts 320°
2026-04-20 01:35 29.75343 -85.06095 1788 ft 123 kts 321°
2026-04-20 01:35 29.75872 -85.06882 2239 ft 126 kts 320°
2026-04-20 01:36 29.76402 -85.07703 2670 ft 129 kts 320°
2026-04-20 01:36 29.76939 -85.08523 3047 ft 131 kts 320°
2026-04-20 01:36 29.77523 -85.09346 3419 ft 133 kts 325°
2026-04-20 01:36 29.78314 -85.09652 3774 ft 119 kts 15°
2026-04-20 01:37 29.79040 -85.09229 4127 ft 119 kts 45°
2026-04-20 01:37 29.79409 -85.08358 4456 ft 128 kts 74°
2026-04-20 01:37 29.79588 -85.07336 4792 ft 132 kts 72°
2026-04-20 01:37 29.79790 -85.06280 5115 ft 137 kts 71°
2026-04-20 01:38 29.79996 -85.05198 5462 ft 140 kts 72°
2026-04-20 01:38 29.80207 -85.04091 5797 ft 144 kts 71°
2026-04-20 01:38 29.80426 -85.02946 6123 ft 149 kts 73°
2026-04-20 01:38 29.80652 -85.01770 6460 ft 152 kts 73°
2026-04-20 01:39 29.80883 -85.00562 6786 ft 156 kts 74°
2026-04-20 01:39 29.81119 -84.99334 7112 ft 158 kts 73°
2026-04-20 01:39 29.81356 -84.98094 7446 ft 159 kts 73°
2026-04-20 01:39 29.81597 -84.96836 7790 ft 161 kts 73°
2026-04-20 01:40 29.81840 -84.95567 8141 ft 163 kts 73°
2026-04-20 01:40 29.82086 -84.94282 8494 ft 165 kts 73°
2026-04-20 01:40 29.82334 -84.92982 8851 ft 167 kts 73°
2026-04-20 01:40 29.82581 -84.91687 9196 ft 169 kts 73°
2026-04-20 01:41 29.82835 -84.90360 9558 ft 171 kts 73°
2026-04-20 01:41 29.83092 -84.89021 9928 ft 172 kts 73°
2026-04-20 01:41 29.83349 -84.87669 10272 ft 174 kts 73°
2026-04-20 01:41 29.83609 -84.86309 10607 ft 174 kts 73°
2026-04-20 01:42 29.83870 -84.84941 10947 ft 175 kts 73°
2026-04-20 01:42 29.84130 -84.83568 11303 ft 175 kts 73°
2026-04-20 01:42 29.84391 -84.82198 11661 ft 175 kts 73°
2026-04-20 01:42 29.84652 -84.80826 12028 ft 175 kts 73°
2026-04-20 01:43 29.84913 -84.79455 12399 ft 175 kts 73°
2026-04-20 01:43 29.85174 -84.78085 12768 ft 176 kts 73°
2026-04-20 01:43 29.85435 -84.76707 13144 ft 176 kts 73°
2026-04-20 01:43 29.85699 -84.75326 13528 ft 177 kts 73°
2026-04-20 01:44 29.85960 -84.73944 13912 ft 177 kts 73°
2026-04-20 01:44 29.86221 -84.72559 14253 ft 177 kts 73°
2026-04-20 01:44 29.86485 -84.71171 14579 ft 178 kts 73°
2026-04-20 01:44 29.86750 -84.69775 14897 ft 179 kts 73°
2026-04-20 01:45 29.87017 -84.68366 15220 ft 180 kts 72°
2026-04-20 01:45 29.87286 -84.66946 15540 ft 182 kts 72°
2026-04-20 01:45 29.87559 -84.65510 15858 ft 185 kts 73°
2026-04-20 01:45 29.87833 -84.64052 16171 ft 187 kts 72°
2026-04-20 01:46 29.88111 -84.62580 16496 ft 189 kts 72°
2026-04-20 01:46 29.88392 -84.61093 16826 ft 191 kts 72°
2026-04-20 01:46 29.88675 -84.59593 17156 ft 192 kts 72°
2026-04-20 01:46 29.88963 -84.58068 17399 ft 200 kts 72°
2026-04-20 01:47 29.89264 -84.56485 17622 ft 209 kts 72°
2026-04-20 01:47 29.89574 -84.54825 17882 ft 214 kts 73°
2026-04-20 01:47 29.89642 -84.54464 17941 ft 215 kts 72°
2026-04-20 01:47 29.89873 -84.53218 18139 ft 218 kts 72°
2026-04-20 01:48 29.90195 -84.51496 18425 ft 221 kts 72°
2026-04-20 01:48 29.90523 -84.49751 18685 ft 224 kts 72°
2026-04-20 01:48 29.90856 -84.47986 18945 ft 227 kts 72°
2026-04-20 01:48 29.91192 -84.46197 19202 ft 229 kts 72°
2026-04-20 01:49 29.91528 -84.44402 19469 ft 230 kts 73°
2026-04-20 01:49 29.91866 -84.42591 19733 ft 232 kts 73°
2026-04-20 01:49 29.92207 -84.40765 19997 ft 234 kts 73°
2026-04-20 01:49 29.92552 -84.38925 20264 ft 236 kts 73°
2026-04-20 01:50 29.92898 -84.37070 20532 ft 237 kts 73°
2026-04-20 01:50 29.93244 -84.35208 20793 ft 238 kts 73°
2026-04-20 01:50 29.93380 -84.33296 21043 ft 243 kts 96°
2026-04-20 01:50 29.93000 -84.31399 21299 ft 242 kts 109°
2026-04-20 01:51 29.92515 -84.29539 21555 ft 242 kts 109°
2026-04-20 01:51 29.92040 -84.27673 21802 ft 242 kts 109°
2026-04-20 01:51 29.91564 -84.25813 22042 ft 242 kts 110°
2026-04-20 01:51 29.91092 -84.23978 22266 ft 242 kts 110°
2026-04-20 01:52 29.90615 -84.22121 22489 ft 241 kts 110°
2026-04-20 01:52 29.90139 -84.20263 22700 ft 241 kts 110°
2026-04-20 01:52 29.89663 -84.18411 22904 ft 242 kts 110°
2026-04-20 01:52 29.89185 -84.16555 23108 ft 242 kts 110°
2026-04-20 01:53 29.88700 -84.14678 23174 ft 249 kts 110°
2026-04-20 01:53 29.88194 -84.12723 23194 ft 260 kts 110°
2026-04-20 01:53 29.87666 -84.10674 23196 ft 272 kts 110°
2026-04-20 01:53 29.87116 -84.08539 23196 ft 283 kts 110°
2026-04-20 01:54 29.86546 -84.06326 23195 ft 293 kts 110°
2026-04-20 01:54 29.85954 -84.04041 23192 ft 301 kts 110°
2026-04-20 01:54 29.85348 -84.01697 23194 ft 308 kts 109°
2026-04-20 01:54 29.84731 -83.99311 23191 ft 313 kts 109°
2026-04-20 01:55 29.84104 -83.96886 23198 ft 318 kts 109°
2026-04-20 01:55 29.83476 -83.94465 23186 ft 321 kts 109°
2026-04-20 01:55 29.82834 -83.91989 23195 ft 324 kts 109°
2026-04-20 01:55 29.82121 -83.89519 23186 ft 324 kts 119°
2026-04-20 01:56 29.81022 -83.87279 23190 ft 321 kts 127°
2026-04-20 01:56 29.79862 -83.85078 23183 ft 323 kts 127°
2026-04-20 01:56 29.78706 -83.82848 23190 ft 324 kts 127°
2026-04-20 01:56 29.77546 -83.80617 23190 ft 325 kts 127°
2026-04-20 01:57 29.76375 -83.78387 23189 ft 326 kts 127°
2026-04-20 01:57 29.75203 -83.76149 23187 ft 327 kts 127°
2026-04-20 01:57 29.74027 -83.73899 23179 ft 328 kts 127°
2026-04-20 01:57 29.72851 -83.71653 23183 ft 328 kts 127°
2026-04-20 01:58 29.71675 -83.69409 23178 ft 328 kts 127°
2026-04-20 01:58 29.70492 -83.67155 23183 ft 328 kts 127°
2026-04-20 01:58 29.69312 -83.64905 23184 ft 329 kts 127°
2026-04-20 01:58 29.68134 -83.62660 23179 ft 329 kts 127°
2026-04-20 01:59 29.66949 -83.60405 23152 ft 328 kts 126°
2026-04-20 01:59 29.65770 -83.58161 23160 ft 329 kts 126°
2026-04-20 01:59 29.64585 -83.55906 23160 ft 329 kts 126°
2026-04-20 01:59 29.63401 -83.53660 23160 ft 329 kts 126°
2026-04-20 02:00 29.62215 -83.51406 23164 ft 330 kts 126°
2026-04-20 02:00 29.61026 -83.49146 23163 ft 330 kts 126°
2026-04-20 02:00 29.59856 -83.46925 23165 ft 330 kts 126°
2026-04-20 02:00 29.58663 -83.44665 23158 ft 330 kts 126°
2026-04-20 02:01 29.57473 -83.42407 23156 ft 330 kts 126°
2026-04-20 02:01 29.56282 -83.40151 23155 ft 330 kts 126°
2026-04-20 02:01 29.55090 -83.37895 23153 ft 330 kts 126°
2026-04-20 02:01 29.53898 -83.35640 23151 ft 330 kts 126°
2026-04-20 02:02 29.52706 -83.33384 23161 ft 330 kts 126°
2026-04-20 02:02 29.51512 -83.31128 23161 ft 330 kts 126°
2026-04-20 02:02 29.50319 -83.28874 23154 ft 330 kts 126°
2026-04-20 02:02 29.49125 -83.26618 23153 ft 330 kts 126°
2026-04-20 02:03 29.47933 -83.24370 23154 ft 330 kts 126°
2026-04-20 02:03 29.46737 -83.22117 23154 ft 330 kts 126°
2026-04-20 02:03 29.45542 -83.19864 23154 ft 331 kts 126°
2026-04-20 02:03 29.44353 -83.17619 23152 ft 327 kts 126°
2026-04-20 02:04 29.43177 -83.15400 23148 ft 324 kts 126°
2026-04-20 02:04 29.42007 -83.13203 23136 ft 321 kts 126°
2026-04-20 02:04 29.40848 -83.11027 23129 ft 318 kts 126°
2026-04-20 02:04 29.39701 -83.08867 23135 ft 316 kts 126°
2026-04-20 02:05 29.38560 -83.06723 23142 ft 314 kts 126°
2026-04-20 02:05 29.37425 -83.04592 23131 ft 312 kts 126°
2026-04-20 02:05 29.36295 -83.02470 23137 ft 311 kts 126°
2026-04-20 02:05 29.35184 -83.00386 23126 ft 309 kts 126°
2026-04-20 02:06 29.34067 -82.98292 23134 ft 308 kts 127°
2026-04-20 02:06 29.32951 -82.96202 23131 ft 307 kts 127°
2026-04-20 02:06 29.31837 -82.94115 23131 ft 307 kts 127°
2026-04-20 02:06 29.30725 -82.92031 23132 ft 306 kts 127°
2026-04-20 02:07 29.29613 -82.89952 23134 ft 306 kts 127°
2026-04-20 02:07 29.28505 -82.87876 23130 ft 305 kts 127°
2026-04-20 02:07 29.27395 -82.85804 23129 ft 305 kts 127°
2026-04-20 02:07 29.26283 -82.83730 23123 ft 305 kts 127°
2026-04-20 02:08 29.25177 -82.81661 23127 ft 304 kts 127°
2026-04-20 02:08 29.24071 -82.79596 23125 ft 304 kts 127°
2026-04-20 02:08 29.22966 -82.77533 23124 ft 304 kts 127°
2026-04-20 02:08 29.21858 -82.75472 23125 ft 304 kts 127°
2026-04-20 02:09 29.20751 -82.73409 23125 ft 304 kts 127°
2026-04-20 02:09 29.19645 -82.71346 23124 ft 304 kts 127°
2026-04-20 02:09 29.18541 -82.69291 23119 ft 304 kts 127°
2026-04-20 02:09 29.17432 -82.67228 23119 ft 304 kts 127°
2026-04-20 02:10 29.16326 -82.65171 23115 ft 304 kts 127°
2026-04-20 02:10 29.15233 -82.63139 23115 ft 303 kts 127°
2026-04-20 02:10 29.14128 -82.61082 23115 ft 303 kts 127°
2026-04-20 02:10 29.13021 -82.59028 23116 ft 303 kts 127°
2026-04-20 02:11 29.11913 -82.56974 23120 ft 303 kts 127°
2026-04-20 02:11 29.10806 -82.54921 23113 ft 303 kts 127°
2026-04-20 02:11 29.09699 -82.52868 23114 ft 303 kts 127°
2026-04-20 02:11 29.08592 -82.50815 23114 ft 303 kts 127°
2026-04-20 02:12 29.07483 -82.48761 23125 ft 303 kts 127°
2026-04-20 02:12 29.06376 -82.46710 23126 ft 303 kts 127°
2026-04-20 02:12 29.05268 -82.44660 23127 ft 303 kts 127°
2026-04-20 02:12 29.04159 -82.42610 23128 ft 303 kts 127°
2026-04-20 02:13 29.03051 -82.40561 23122 ft 302 kts 127°
2026-04-20 02:13 29.01943 -82.38512 23122 ft 302 kts 127°
2026-04-20 02:13 29.00837 -82.36472 23123 ft 302 kts 127°
2026-04-20 02:13 28.99732 -82.34431 23119 ft 302 kts 127°
2026-04-20 02:14 28.98627 -82.32391 23123 ft 302 kts 127°
2026-04-20 02:14 28.97522 -82.30352 23123 ft 302 kts 127°
2026-04-20 02:14 28.96414 -82.28314 23083 ft 303 kts 127°
2026-04-20 02:14 28.95275 -82.26222 22711 ft 317 kts 127°
2026-04-20 02:15 28.94088 -82.24041 22251 ft 331 kts 127°
2026-04-20 02:15 28.92854 -82.21770 21794 ft 342 kts 126°
2026-04-20 02:15 28.91582 -82.19428 21299 ft 352 kts 126°
2026-04-20 02:15 28.90295 -82.17060 20791 ft 357 kts 126°
2026-04-20 02:16 28.88986 -82.14651 20287 ft 356 kts 126°
2026-04-20 02:16 28.87694 -82.12274 19793 ft 349 kts 126°
2026-04-20 02:16 28.86420 -82.09938 19296 ft 344 kts 127°
2026-04-20 02:16 28.85167 -82.07640 18818 ft 339 kts 127°
2026-04-20 02:17 28.83935 -82.05379 18339 ft 334 kts 127°
2026-04-20 02:17 28.82710 -82.03137 17824 ft 331 kts 127°
2026-04-20 02:17 28.81498 -82.00920 17308 ft 328 kts 126°
2026-04-20 02:17 28.80299 -81.98725 16804 ft 324 kts 126°
2026-04-20 02:18 28.79114 -81.96556 16314 ft 320 kts 126°
2026-04-20 02:18 28.77942 -81.94413 15830 ft 316 kts 126°
2026-04-20 02:18 28.76788 -81.92304 15372 ft 311 kts 125°
2026-04-20 02:18 28.75650 -81.90225 14917 ft 306 kts 125°
2026-04-20 02:19 28.74539 -81.88195 14494 ft 294 kts 125°
2026-04-20 02:19 28.73489 -81.86271 14156 ft 280 kts 124°
2026-04-20 02:19 28.72479 -81.84427 13802 ft 268 kts 125°
2026-04-20 02:19 28.71520 -81.82681 13425 ft 260 kts 124°
2026-04-20 02:20 28.70564 -81.80940 13020 ft 252 kts 125°
2026-04-20 02:20 28.69658 -81.79290 12639 ft 244 kts 125°
2026-04-20 02:20 28.68771 -81.77673 12261 ft 238 kts 125°
2026-04-20 02:20 28.67899 -81.76086 11882 ft 234 kts 124°
2026-04-20 02:21 28.66190 -81.72979 11165 ft 229 kts 124°
2026-04-20 02:21 28.65348 -81.71450 10817 ft 227 kts 124°
2026-04-20 02:21 28.64784 -81.70426 10585 ft 225 kts 124°
2026-04-20 02:22 28.63969 -81.68944 10249 ft 222 kts 123°
2026-04-20 02:22 28.63153 -81.67461 9900 ft 220 kts 123°
2026-04-20 02:22 28.62348 -81.65996 9527 ft 217 kts 123°
2026-04-20 02:22 28.61548 -81.64545 9162 ft 215 kts 124°
2026-04-20 02:23 28.60758 -81.63113 8804 ft 213 kts 124°
2026-04-20 02:23 28.59974 -81.61689 8444 ft 211 kts 124°
2026-04-20 02:23 28.59202 -81.60291 8096 ft 208 kts 123°
2026-04-20 02:23 28.58436 -81.58903 7753 ft 205 kts 123°
2026-04-20 02:24 28.57685 -81.57540 7419 ft 202 kts 124°
2026-04-20 02:24 28.56944 -81.56196 7095 ft 199 kts 123°
2026-04-20 02:24 28.56213 -81.54873 6776 ft 196 kts 123°
2026-04-20 02:24 28.55495 -81.53572 6460 ft 192 kts 123°
2026-04-20 02:25 28.54788 -81.52295 6129 ft 190 kts 123°
2026-04-20 02:25 28.54089 -81.51028 5800 ft 187 kts 123°
2026-04-20 02:25 28.53399 -81.49782 5466 ft 186 kts 123°
2026-04-20 02:25 28.52709 -81.48537 5134 ft 185 kts 122°
2026-04-20 02:26 28.52037 -81.47321 4809 ft 181 kts 122°
2026-04-20 02:26 28.51387 -81.46143 4459 ft 172 kts 122°
2026-04-20 02:26 28.50759 -81.45009 4091 ft 167 kts 122°
2026-04-20 02:26 28.50143 -81.43894 3730 ft 166 kts 121°
2026-04-20 02:27 28.49533 -81.42794 3391 ft 162 kts 121°
2026-04-20 02:27 28.48952 -81.41750 3147 ft 152 kts 120°
2026-04-20 02:27 28.48393 -81.40739 2944 ft 150 kts 118°
2026-04-20 02:27 28.47841 -81.39735 2693 ft 150 kts 119°
2026-04-20 02:28 28.47283 -81.38735 2477 ft 148 kts 117°
2026-04-20 02:28 28.46747 -81.37769 2203 ft 140 kts 116°
2026-04-20 02:28 28.46234 -81.36843 1897 ft 138 kts 115°
2026-04-20 02:28 28.45725 -81.35920 1595 ft 137 kts 115°
2026-04-20 02:29 28.45060 -81.35145 1285 ft 143 kts 157°
2026-04-20 02:29 28.44102 -81.35066 1101 ft 132 kts 186°
2026-04-20 02:29 28.43239 -81.35083 1103 ft 118 kts 180°
2026-04-20 02:29 28.42438 -81.35060 1088 ft 113 kts 181°
2026-04-20 02:30 28.41659 -81.35051 1090 ft 110 kts 180°
2026-04-20 02:30 28.40911 -81.35071 1086 ft 105 kts 181°
2026-04-20 02:30 28.40184 -81.35085 1091 ft 105 kts 182°
2026-04-20 02:30 28.39422 -81.35064 1106 ft 116 kts 181°
2026-04-20 02:31 28.38593 -81.35046 1112 ft 122 kts 181°
2026-04-20 02:31 28.37822 -81.34649 1051 ft 124 kts 126°
2026-04-20 02:31 28.37548 -81.33807 1009 ft 112 kts 91°
2026-04-20 02:31 28.37545 -81.32955 917 ft 104 kts 66°
2026-04-20 02:32 28.37996 -81.32365 737 ft 98 kts 20°
2026-04-20 02:32 28.38635 -81.32193 660 ft 94 kts
2026-04-20 02:32 28.39285 -81.32170 579 ft 92 kts 357°
2026-04-20 02:32 28.39942 -81.32187 455 ft 99 kts 354°
2026-04-20 02:33 28.40630 -81.32190 345 ft 97 kts 355°
2026-04-20 02:33 28.41292 -81.32192 191 ft 92 kts 355°
2026-04-20 02:33 28.41904 -81.32198 101 ft 81 kts 354°
2026-04-20 02:33 28.42368 -81.32205 104 ft 40 kts
2026-04-20 02:34 28.42453 -81.32282 103 ft 16 kts 299°
2026-04-20 02:34 28.42515 -81.32404 100 ft 19 kts 301°
2026-04-20 02:34 28.42586 -81.32544 99 ft 22 kts 301°
2026-04-20 02:34 28.42648 -81.32673 96 ft 10 kts 290°
2026-04-20 02:35 28.42652 -81.32767 97 ft 14 kts 269°
2026-04-20 02:35 28.42650 -81.32881 98 ft 15 kts 257°
2026-04-20 02:35 28.42548 -81.32919 95 ft 20 kts 179°
2026-04-20 02:35 28.42389 -81.32918 94 ft 25 kts 180°
2026-04-20 02:36 28.42215 -81.32917 97 ft 24 kts 179°
2026-04-20 02:36 28.42146 -81.32949 97 ft 12 kts 257°
2026-04-20 02:36 28.42140 -81.33062 96 ft 15 kts 269°
2026-04-20 02:36 28.42163 -81.33130 96 ft 7 kts 351°
2026-04-20 02:37 28.42180 -81.33131 95 ft 0 kts